TimeEDT,TemperatureF,Dew PointF,Humidity,Sea Level PressureIn,VisibilityMPH,Wind Direction,Wind SpeedMPH,Gust SpeedMPH,PrecipitationIn,Events,Conditions,WindDirDegrees,DateUTC
12:31 AM,73.4,73.4,100,29.99,10.0,East,6.9,-,N/A,,Mostly Cloudy,80,2013-09-19 04:31:00
12:53 AM,73.0,73.0,100,29.98,10.0,East,5.8,-,N/A,,Partly Cloudy,80,2013-09-19 04:53:00
1:53 AM,73.0,73.0,100,29.97,10.0,East,5.8,-,N/A,,Partly Cloudy,80,2013-09-19 05:53:00
2:53 AM,73.0,73.0,100,29.96,10.0,Calm,Calm,-,N/A,,Mostly Cloudy,0,2013-09-19 06:53:00
3:53 AM,73.0,73.0,100,29.95,10.0,Calm,Calm,-,N/A,,Scattered Clouds,0,2013-09-19 07:53:00
4:53 AM,73.0,72.0,96,29.95,10.0,ENE,3.5,-,N/A,,Clear,60,2013-09-19 08:53:00
5:53 AM,73.0,72.0,96,29.96,10.0,Calm,Calm,-,N/A,,Clear,0,2013-09-19 09:53:00
6:53 AM,73.0,73.0,100,29.97,10.0,Calm,Calm,-,N/A,,Clear,0,2013-09-19 10:53:00
7:53 AM,75.0,73.9,96,29.98,10.0,NE,3.5,-,N/A,,Clear,40,2013-09-19 11:53:00
8:53 AM,78.1,75.9,93,29.99,10.0,ENE,5.8,-,N/A,,Clear,60,2013-09-19 12:53:00
9:53 AM,81.0,75.9,85,30.01,10.0,East,6.9,-,N/A,,Clear,80,2013-09-19 13:53:00
10:53 AM,84.0,75.9,76,30.02,10.0,East,3.5,-,N/A,,Scattered Clouds,80,2013-09-19 14:53:00
11:53 AM,86.0,75.0,70,30.02,10.0,Variable,4.6,-,N/A,,Scattered Clouds,0,2013-09-19 15:53:00
12:53 PM,87.1,73.9,65,30.00,10.0,Calm,Calm,-,N/A,,Partly Cloudy,0,2013-09-19 16:53:00
1:53 PM,89.1,75.0,63,29.97,10.0,NNE,5.8,-,N/A,,Scattered Clouds,20,2013-09-19 17:53:00
2:53 PM,89.1,73.0,59,29.95,10.0,NNW,4.6,-,N/A,,Mostly Cloudy,340,2013-09-19 18:53:00
3:53 PM,89.1,75.0,63,29.94,10.0,NW,5.8,-,0.01,,Partly Cloudy,310,2013-09-19 19:53:00
4:14 PM,82.4,75.2,79,29.94,10.0,ENE,21.9,28.8,N/A,,Mostly Cloudy,60,2013-09-19 20:14:00
4:21 PM,82.4,73.4,74,29.95,10.0,ENE,15.0,27.6,N/A,Thunderstorm,Thunderstorm,60,2013-09-19 20:21:00
4:53 PM,79.0,75.0,88,29.96,10.0,South,8.1,-,0.00,Thunderstorm,Thunderstorm,170,2013-09-19 20:53:00
5:35 PM,78.8,75.2,89,29.96,10.0,SSE,3.5,-,N/A,,Mostly Cloudy,150,2013-09-19 21:35:00
5:53 PM,80.1,75.0,85,29.96,10.0,Calm,Calm,-,N/A,,Partly Cloudy,0,2013-09-19 21:53:00
6:53 PM,81.0,75.9,85,29.97,10.0,NE,6.9,-,N/A,,Mostly Cloudy,50,2013-09-19 22:53:00
7:53 PM,80.1,75.9,87,29.98,10.0,ENE,4.6,-,N/A,,Mostly Cloudy,60,2013-09-19 23:53:00
8:53 PM,79.0,75.9,90,29.98,10.0,ENE,5.8,-,N/A,,Clear,70,2013-09-20 00:53:00
9:53 PM,78.1,75.0,90,30.00,10.0,ENE,6.9,-,N/A,,Clear,60,2013-09-20 01:53:00
10:53 PM,78.1,75.0,90,30.01,10.0,ENE,5.8,-,N/A,,Clear,70,2013-09-20 02:53:00
11:53 PM,77.0,75.0,94,30.00,10.0,ENE,4.6,-,N/A,,Clear,70,2013-09-20 03:53:00